Weather History for Homer, AK

Change the Weather History Date:

Tuesday, September 11, 2012

  Actual Average Record
Temperature  
Mean Temperature 46 °F -  
Max Temperature 54 °F 55 °F 69 °F (1997)
Min Temperature 39 °F 41 °F 27 °F (1992)
Degree Days  
Heating Degree Days 18    
Moisture  
Dew Point 39 °F    
Average Humidity 70    
Maximum Humidity 82    
Minimum Humidity 55    
Precipitation  
Precipitation 0.04 in - - ()
Sea Level Pressure  
Sea Level Pressure 29.76 in    
Wind  
Wind Speed 2 mph (ENE)    
Max Wind Speed 12 mph    
Max Gust Speed -    
Visibility 10 miles    
Events Rain    
Averages and records for this station are not official NWS values.
T = Trace of Precipitation, MM = Missing Value Source: NWS Daily Summary

Daily Weather History Graph

Daily Weather History Graph

Search for Another Location

Airport:

Trip Planner

Search our weather history database for the weather conditions in past years. The results will help you decide how hot, cold, wet, or windy it might be!

Date:

Astronomy

Sep. 11, 2012 Rise Set
Actual Time 7:26 AM AKDT 8:36 PM AKDT
Civil Twilight 6:44 AM AKDT 9:18 PM AKDT
Nautical Twilight 5:51 AM AKDT 10:10 PM AKDT
Astronomical Twilight 4:51 AM AKDT 11:10 PM AKDT
Moon 1:57 AM AKDT (9/11) 6:39 PM AKDT (9/11)
Length of Visible Light 14h 34m
Length of Day
13h 09m
Waning Crescent, 20% of the Moon is Illuminated
Sep 11
Waning Crescent
Sep 15
New
Sep 22
First Quarter
Sep 29
Full
Oct 7
Last Quarter

Hourly Weather History & Observations

Time (AKDT) Temp. Windchill Dew Point Humidity Pressure Visibility Wind Dir Wind Speed Gust Speed Precip Events Conditions
12:53 AM 42.1 °F - 35.1 °F 76% 29.83 in 10.0 mi Calm Calm - N/A   Scattered Clouds
1:53 AM 43.0 °F - 35.1 °F 74% 29.83 in 10.0 mi Calm Calm - N/A   Overcast
2:53 AM 39.0 °F - 34.0 °F 82% 29.84 in 10.0 mi Calm Calm - N/A   Overcast
3:53 AM 41.0 °F 39.0 °F 35.1 °F 79% 29.84 in 10.0 mi NNE 3.5 mph - N/A   Overcast
4:53 AM 44.1 °F 41.5 °F 37.9 °F 79% 29.84 in 10.0 mi East 4.6 mph - N/A   Overcast
5:53 AM 45.0 °F - 39.0 °F 80% 29.83 in 10.0 mi Calm Calm - N/A   Overcast
6:53 AM 44.1 °F - 39.0 °F 82% 29.83 in 10.0 mi Calm Calm - N/A   Overcast
7:53 AM 46.0 °F - 39.0 °F 76% 29.82 in 10.0 mi Calm Calm - 0.00 in   Overcast
8:53 AM 46.9 °F - 39.9 °F 77% 29.82 in 10.0 mi Calm Calm - N/A   Overcast
9:53 AM 50.0 °F - 41.0 °F 71% 29.81 in 10.0 mi ESE 3.5 mph - N/A   Overcast
10:53 AM 51.1 °F - 39.9 °F 66% 29.81 in 10.0 mi ESE 3.5 mph - N/A   Overcast
11:53 AM 53.1 °F - 39.0 °F 59% 29.80 in 10.0 mi Calm Calm - N/A   Overcast
12:53 PM 54.0 °F - 37.9 °F 55% 29.79 in 10.0 mi Calm Calm - N/A   Overcast
1:53 PM 53.1 °F - 43.0 °F 69% 29.76 in 10.0 mi Calm Calm - 0.02 in Rain Light Rain
2:53 PM 54.0 °F - 42.1 °F 64% 29.74 in 10.0 mi ENE 5.8 mph - 0.00 in   Overcast
3:53 PM 54.0 °F - 39.9 °F 59% 29.73 in 10.0 mi ENE 4.6 mph - N/A   Overcast
4:53 PM 53.1 °F - 42.1 °F 66% 29.71 in 10.0 mi Calm Calm - 0.00 in Rain Light Rain
5:53 PM 51.1 °F - 43.0 °F 74% 29.69 in 10.0 mi NE 5.8 mph - 0.02 in Rain Light Rain
6:53 PM 52.0 °F - 39.9 °F 63% 29.67 in 10.0 mi NE 10.4 mph - 0.00 in   Overcast
7:53 PM 51.1 °F - 39.9 °F 66% 29.66 in 10.0 mi NE 11.5 mph - N/A   Overcast
8:53 PM 51.1 °F - 37.9 °F 61% 29.64 in 10.0 mi NE 11.5 mph - N/A   Overcast
9:53 PM 51.1 °F - 37.9 °F 61% 29.62 in 10.0 mi ENE 6.9 mph - N/A   Overcast
10:53 PM 50.0 °F - 39.0 °F 66% 29.61 in 10.0 mi ENE 8.1 mph - N/A   Overcast
11:53 PM 50.0 °F - 41.0 °F 71% 29.60 in 10.0 mi NNE 4.6 mph - 0.00 in   Overcast